Wind_Speed
34 34 29 26 27 26 25 24 21 21 18 17 17 21 24 26 27 28 30 32 34 33 34 33 32 32 34 35 37 38 39 39 40 40 39 39 38 38 37 38 38 39 40 42
37 34 27 29 30 29 28 26 24 23 19 16 16 18 23 28 31 32 34 34 33 31 31 31 31 31 33 35 37 38 39 40 40 41 41 41 41 41 41 41 42 43 45 47
36 29 30 32 32 30 28 26 25 26 24 21 19 19 24 30 34 36 36 33 29 27 27 29 30 31 32 34 37 38 38 39 40 41 42 43 43 44 44 46 47 49 51 52
33 29 32 33 32 30 27 23 25 27 30 28 26 26 28 33 37 38 35 31 27 27 29 31 32 32 32 34 36 36 37 39 41 43 44 45 46 47 48 50 52 54 55 57
28 26 30 32 30 29 26 23 24 27 31 35 35 35 34 38 40 38 35 31 30 31 33 34 34 33 33 35 35 36 38 41 44 46 47 48 50 51 52 54 56 57 59 61
26 27 30 30 30 29 25 25 26 30 32 35 35 39 42 43 41 39 37 35 34 35 36 37 37 36 36 37 37 38 41 44 47 49 50 52 53 54 55 57 59 60 61 62
26 27 28 29 31 30 29 28 30 34 37 37 32 37 42 43 43 43 42 39 38 38 40 41 41 40 41 40 40 41 44 47 50 52 53 55 55 57 58 60 61 62 62 62
27 27 25 26 27 26 28 31 32 33 34 32 32 36 36 37 39 39 39 39 39 40 42 43 42 42 43 42 42 44 46 48 52 55 56 57 57 58 60 61 62 63 62 61
26 26 25 27 25 24 26 29 29 31 31 30 32 33 34 33 33 35 36 37 36 37 38 39 39 40 41 42 44 45 46 49 53 56 57 57 59 61 63 64 64 63 62 60
27 26 25 28 30 29 29 28 29 32 33 34 36 37 37 35 34 34 35 35 35 34 35 36 37 39 41 44 46 46 48 51 55 57 59 61 63 64 66 67 67 65 60 54
35 34 28 32 33 30 29 30 31 33 35 35 35 34 32 37 39 39 40 40 40 39 38 38 39 41 43 45 46 46 49 53 56 59 63 65 66 67 67 67 64 57 49 42
40 39 36 35 37 34 31 29 30 35 37 37 37 34 32 35 38 41 43 43 43 43 42 42 42 43 44 44 43 46 50 54 58 62 66 66 66 66 65 61 52 43 38 35
43 43 42 37 35 37 38 34 31 31 33 36 40 39 37 39 41 42 43 44 45 46 45 45 45 44 41 40 42 46 51 55 61 65 66 65 64 63 58 48 39 35 34 35
49 48 47 45 41 40 42 42 40 38 39 40 42 42 40 40 41 42 43 44 46 47 48 46 43 38 37 39 43 48 54 60 64 64 63 61 60 55 46 38 35 34 35 37
54 55 54 53 50 48 46 47 46 46 46 46 44 42 41 42 43 43 43 43 45 46 43 40 35 34 37 41 47 53 59 63 62 61 59 57 53 45 39 37 36 37 38 41
58 61 62 60 59 58 55 51 50 51 52 52 50 47 45 46 46 44 42 42 43 41 36 34 33 36 41 47 53 59 61 60 58 56 55 52 45 40 38 38 38 40 42 46
51 56 61 63 63 64 62 57 56 55 55 57 57 54 51 49 47 48 48 45 43 39 36 34 38 43 47 52 56 58 57 56 54 53 50 45 40 39 38 39 41 44 47 50
47 50 55 58 60 63 60 58 59 59 58 59 60 60 59 57 56 55 53 49 46 45 45 45 46 47 49 53 54 53 52 51 50 48 44 40 38 39 40 42 45 48 51 52
45 47 49 52 56 59 56 56 56 56 57 58 61 63 63 61 59 58 55 52 49 47 46 44 45 46 48 49 49 49 47 47 46 42 39 37 38 40 42 44 47 50 51 51
41 44 46 48 51 53 51 50 50 50 50 51 54 57 58 58 57 54 49 46 45 44 44 43 43 44 44 45 45 44 44 43 40 37 36 37 39 41 44 46 48 49 49 50
30 34 37 40 44 45 45 45 44 44 44 42 43 44 44 46 47 46 43 41 40 39 39 39 39 40 40 41 40 40 41 39 35 34 35 38 40 43 45 46 47 48 49 51
25 29 33 36 39 39 40 43 43 41 38 37 37 37 37 36 37 36 36 35 35 34 35 35 35 36 36 36 37 38 36 33 32 33 35 38 41 43 44 45 46 48 49 49
23 25 28 30 32 33 33 35 36 36 35 35 32 28 30 31 32 31 29 28 29 30 30 31 32 32 32 33 34 33 30 29 30 33 36 39 41 42 43 44 45 46 46 45
20 21 23 25 25 24 23 22 24 25 25 25 25 24 25 25 24 23 22 23 25 26 27 29 29 30 30 30 29 26 25 27 30 33 36 39 39 40 42 42 43 43 42 41
15 16 17 18 16 13 10 9 12 17 16 16 17 15 14 16 17 18 19 21 23 25 26 26 26 27 27 24 22 22 24 27 30 34 36 38 39 40 41 41 41 40 39 38
11 11 11 8 6 5 7 7 9 10 10 8 7 8 10 12 15 16 18 21 22 23 22 23 23 23 20 18 18 20 23 27 30 33 35 37 39 40 40 40 39 38 37 35
Wind_Direction
241 242 243 245 245 242 242 242 234 227 224 237 248 250 251 257 263 273 282 290 291 291 296 302 309 312 313 315 318 319 318 318 318 318 317 316 315 314 313 312 311 309 307 305
240 242 241 240 241 241 242 243 237 225 221 240 255 255 252 255 262 270 278 284 285 286 292 299 305 307 310 313 316 316 316 316 316 316 316 315 314 313 312 311 310 308 306 304
242 240 237 238 240 241 242 244 237 225 215 226 242 247 247 250 256 265 274 280 283 284 288 294 299 301 305 309 313 314 314 314 314 315 315 314 313 312 311 310 309 307 305 304
240 236 237 237 237 237 235 235 233 228 220 221 233 246 247 252 257 264 272 278 283 285 288 293 295 296 300 306 311 312 313 313 314 315 315 314 312 311 309 308 307 306 305 304
238 233 235 236 233 232 232 227 230 237 235 227 227 240 247 253 258 265 272 277 282 284 287 289 290 289 293 301 307 312 314 315 316 316 315 314 312 310 308 307 306 305 305 304
237 231 233 234 228 224 226 231 236 243 246 243 233 237 243 251 259 264 268 272 277 280 282 284 285 284 288 296 302 307 311 314 315 315 314 313 312 310 309 308 307 306 305 304
240 235 235 235 232 225 223 230 238 243 246 249 245 241 243 249 255 259 264 269 272 275 278 281 281 281 284 292 298 300 306 312 315 316 315 314 312 311 309 308 306 304 303 302
239 234 234 235 235 235 231 233 241 249 254 256 248 245 246 249 256 261 265 268 273 277 280 278 277 279 283 289 293 297 303 310 314 315 315 313 312 310 308 306 304 303 301 300
242 236 229 229 218 224 235 239 245 253 256 254 250 249 247 246 250 257 265 272 276 281 281 280 280 281 284 287 291 295 302 309 311 313 313 311 310 308 307 306 305 303 302 301
247 244 225 225 222 223 230 235 243 247 251 252 254 255 252 250 254 260 267 274 278 283 283 279 278 281 284 287 290 295 302 307 309 311 312 312 311 310 309 308 307 304 302 300
239 242 225 218 224 227 229 231 237 245 248 251 255 257 258 257 258 262 266 271 277 281 283 284 283 282 284 286 291 298 303 307 310 313 314 313 312 311 311 310 308 305 302 298
241 243 238 223 222 227 234 235 238 243 244 247 254 257 259 262 263 264 266 270 274 278 282 284 282 281 282 286 293 300 305 309 312 314 313 312 312 312 312 311 309 306 302 300
242 245 246 240 230 228 233 238 243 248 248 246 249 253 255 258 262 265 268 271 274 277 281 282 280 278 280 288 297 304 309 312 314 313 312 312 312 313 313 311 310 307 305 305
243 247 250 249 244 237 235 238 240 243 245 247 249 252 256 259 262 264 267 271 274 276 277 276 271 275 287 298 305 309 312 314 313 313 313 313 314 314 312 310 309 308 308 309
242 246 249 253 253 251 246 242 242 244 247 251 254 257 260 263 264 266 269 271 275 273 270 268 273 290 302 307 309 311 312 313 313 313 314 315 315 313 310 309 309 310 311 311
241 244 247 250 253 255 254 251 249 248 249 252 255 259 262 265 266 268 271 275 276 272 268 275 289 302 308 310 311 311 312 312 313 314 314 315 313 310 309 310 311 311 312 313
240 243 246 248 250 253 254 254 255 254 254 254 254 257 260 265 269 275 278 279 283 276 278 291 306 312 312 311 310 310 311 312 313 313 313 312 310 309 310 311 312 313 314 315
244 244 247 249 250 251 254 254 253 252 252 254 256 257 260 264 269 273 277 281 281 278 282 296 307 310 308 308 309 310 311 312 312 312 311 309 309 310 312 314 315 316 317 317
250 249 250 251 253 254 254 255 255 255 253 251 252 255 257 260 265 269 273 277 278 281 291 300 305 305 305 307 309 310 310 311 311 310 308 308 311 312 314 316 318 319 320 320
253 252 253 254 256 258 259 256 255 256 254 252 252 254 257 260 264 268 271 273 275 282 291 299 301 302 305 307 308 308 309 309 309 307 308 310 312 314 317 320 321 322 323 322
250 252 253 255 257 260 261 260 257 254 254 254 254 255 257 259 262 263 265 269 277 286 292 294 297 301 304 306 307 307 308 307 306 306 309 312 314 318 322 324 325 325 325 325
252 254 257 260 262 265 264 260 256 254 251 251 251 252 251 251 253 255 260 268 278 285 289 293 297 301 303 304 305 306 306 305 305 308 312 315 319 323 326 327 328 329 329 329
266 267 268 268 270 270 267 262 255 249 247 246 247 247 244 243 245 251 264 274 279 282 286 291 296 299 301 303 304 304 303 304 307 312 316 320 325 328 330 332 332 332 332 332
273 277 277 277 277 269 264 257 245 239 239 239 239 234 227 232 238 250 260 270 275 280 285 290 294 297 300 302 303 302 303 307 312 317 321 325 330 333 335 335 334 334 335 335
278 283 286 282 272 261 245 222 210 216 222 219 221 223 236 245 248 252 259 266 273 281 287 291 293 296 300 301 301 303 307 312 317 322 326 331 335 337 337 337 337 337 338 339
277 285 286 253 222 184 146 151 167 182 198 207 213 223 243 250 251 255 262 271 279 284 288 290 294 298 300 300 302 307 313 319 323 328 334 337 339 339 339 339 340 341 343 345
Height
5850 5852 5857 5860 5860 5863 5863 5864 5866 5868 5867 5865 5864 5864 5865 5865 5866 5866 5866 5866 5864 5863 5861 5859 5858 5855 5853 5850 5847 5844 5841 5838 5835 5831 5828 5824 5821 5817 5813 5809 5805 5801 5797 5792
5843 5847 5852 5851 5851 5854 5856 5857 5859 5862 5862 5861 5860 5859 5860 5861 5862 5862 5863 5863 5862 5860 5859 5857 5854 5851 5849 5846 5843 5839 5836 5832 5828 5824 5821 5817 5812 5808 5804 5800 5795 5791 5787 5782
5836 5842 5842 5842 5844 5846 5849 5851 5854 5856 5857 5856 5857 5856 5856 5856 5856 5857 5858 5859 5858 5856 5854 5852 5850 5847 5845 5842 5838 5834 5830 5826 5822 5818 5814 5809 5805 5800 5796 5791 5786 5781 5776 5771
5828 5833 5834 5835 5837 5839 5841 5845 5847 5848 5850 5851 5853 5852 5851 5849 5849 5851 5852 5853 5852 5851 5849 5848 5845 5843 5840 5837 5833 5828 5824 5820 5815 5811 5806 5802 5797 5792 5787 5781 5776 5770 5764 5758
5822 5826 5826 5827 5831 5832 5835 5838 5839 5841 5842 5844 5845 5845 5845 5841 5842 5844 5846 5846 5846 5845 5844 5842 5840 5837 5835 5831 5826 5821 5816 5812 5807 5803 5798 5793 5788 5783 5777 5772 5765 5759 5752 5745
5817 5819 5819 5821 5824 5826 5828 5831 5832 5833 5834 5834 5839 5839 5837 5834 5836 5838 5838 5839 5839 5838 5837 5836 5833 5831 5828 5824 5820 5814 5809 5805 5800 5795 5790 5784 5779 5773 5767 5760 5753 5747 5740 5733
5810 5812 5813 5815 5817 5819 5821 5823 5824 5825 5825 5826 5832 5830 5830 5829 5829 5830 5831 5831 5831 5831 5830 5828 5826 5823 5820 5817 5812 5807 5802 5798 5793 5787 5781 5775 5769 5762 5756 5749 5742 5735 5728 5720
5802 5805 5808 5809 5811 5814 5815 5816 5817 5818 5818 5820 5822 5821 5823 5823 5822 5822 5823 5823 5823 5823 5822 5819 5816 5814 5811 5808 5804 5799 5795 5790 5785 5779 5773 5766 5760 5753 5746 5738 5731 5723 5715 5707
5794 5798 5802 5803 5804 5806 5807 5808 5811 5812 5811 5812 5812 5813 5814 5815 5815 5815 5815 5815 5815 5815 5813 5810 5808 5806 5803 5800 5796 5791 5787 5782 5777 5771 5765 5758 5751 5743 5735 5726 5717 5708 5700 5692
5786 5789 5795 5797 5797 5798 5800 5802 5804 5804 5804 5804 5805 5804 5805 5808 5809 5809 5808 5808 5807 5807 5806 5803 5801 5798 5795 5791 5787 5783 5778 5774 5769 5762 5755 5747 5739 5730 5720 5711 5702 5693 5685 5678
5777 5779 5785 5788 5789 5792 5794 5795 5796 5797 5797 5797 5797 5799 5800 5800 5801 5801 5801 5800 5800 5799 5798 5795 5792 5789 5785 5781 5777 5773 5769 5764 5758 5751 5743 5734 5725 5716 5706 5697 5687 5678 5671 5666
5770 5772 5775 5779 5782 5785 5786 5787 5788 5788 5788 5790 5790 5794 5793 5793 5793 5792 5792 5792 5792 5791 5790 5787 5783 5779 5775 5771 5768 5764 5760 5754 5748 5740 5731 5722 5713 5703 5694 5684 5674 5667 5662 5658
5763 5765 5767 5772 5779 5780 5779 5779 5779 5779 5780 5781 5781 5784 5784 5784 5784 5784 5784 5784 5784 5783 5781 5778 5773 5769 5765 5762 5759 5755 5750 5744 5736 5728 5720 5711 5701 5692 5683 5674 5666 5661 5656 5651
5757 5758 5760 5763 5768 5770 5771 5772 5772 5772 5771 5771 5772 5773 5775 5774 5774 5774 5775 5775 5774 5772 5770 5766 5761 5758 5755 5752 5749 5745 5739 5732 5725 5717 5708 5699 5690 5682 5673 5666 5660 5655 5649 5644
5747 5748 5749 5751 5755 5759 5762 5764 5765 5764 5763 5764 5764 5765 5767 5766 5766 5765 5765 5764 5763 5760 5757 5753 5749 5748 5746 5743 5739 5734 5728 5721 5713 5705 5697 5689 5681 5673 5666 5660 5654 5648 5642 5635
5734 5735 5736 5739 5742 5743 5748 5754 5756 5755 5755 5755 5755 5757 5760 5759 5758 5757 5756 5755 5753 5749 5745 5741 5740 5739 5737 5733 5729 5724 5717 5710 5702 5695 5687 5680 5672 5665 5659 5653 5647 5640 5633 5625
5720 5721 5722 5725 5728 5728 5731 5740 5744 5745 5746 5746 5747 5750 5750 5751 5751 5750 5748 5747 5745 5741 5736 5733 5731 5729 5727 5723 5718 5712 5706 5699 5692 5685 5678 5672 5665 5659 5652 5646 5639 5631 5623 5615
5708 5709 5709 5711 5714 5713 5722 5725 5727 5729 5733 5735 5736 5738 5741 5742 5743 5742 5741 5740 5738 5733 5729 5726 5723 5721 5718 5714 5708 5702 5696 5690 5684 5677 5671 5664 5658 5652 5645 5638 5630 5621 5612 5603
5694 5696 5697 5698 5698 5699 5708 5711 5712 5715 5718 5722 5724 5726 5728 5730 5731 5731 5731 5730 5728 5724 5721 5719 5716 5713 5709 5704 5699 5694 5688 5682 5676 5670 5664 5658 5652 5645 5638 5630 5621 5611 5601 5592
5682 5683 5685 5686 5685 5687 5696 5697 5699 5701 5702 5708 5710 5713 5717 5719 5720 5722 5721 5719 5717 5715 5714 5712 5709 5705 5701 5696 5691 5686 5680 5675 5669 5664 5658 5652 5645 5638 5630 5621 5611 5601 5591 5581
5671 5672 5673 5674 5673 5676 5682 5683 5685 5689 5693 5696 5699 5702 5705 5708 5710 5710 5710 5709 5709 5707 5706 5704 5701 5697 5693 5689 5684 5679 5674 5669 5663 5658 5653 5646 5639 5630 5621 5612 5602 5592 5582 5571
5663 5664 5664 5663 5664 5668 5669 5669 5672 5677 5682 5685 5688 5691 5694 5697 5697 5698 5699 5700 5700 5700 5699 5697 5693 5690 5686 5682 5678 5673 5668 5663 5658 5653 5647 5640 5632 5623 5613 5604 5594 5583 5573 5562
5656 5656 5655 5655 5657 5656 5655 5655 5659 5665 5671 5675 5679 5682 5685 5686 5688 5690 5692 5693 5694 5693 5692 5690 5687 5684 5680 5676 5672 5668 5663 5658 5654 5648 5642 5634 5625 5615 5606 5596 5586 5576 5565 5555
5649 5647 5646 5645 5645 5645 5645 5646 5650 5656 5663 5667 5672 5675 5677 5678 5680 5684 5686 5688 5688 5687 5686 5684 5681 5678 5674 5670 5666 5662 5658 5654 5649 5644 5636 5628 5619 5609 5600 5590 5580 5570 5560 5550
5643 5641 5639 5637 5636 5637 5639 5642 5647 5653 5658 5662 5666 5668 5671 5673 5676 5679 5681 5682 5682 5681 5680 5677 5675 5672 5669 5665 5661 5659 5655 5651 5645 5639 5630 5621 5613 5604 5595 5585 5575 5565 5556 5545
5638 5637 5634 5633 5634 5636 5639 5643 5648 5652 5656 5659 5662 5665 5668 5671 5673 5675 5676 5677 5676 5675 5674 5672 5670 5667 5663 5661 5658 5656 5652 5647 5641 5634 5625 5616 5608 5599 5590 5581 5571 5561 5551 5541